Wind_Speed
27 21 20 13 20 19 15 12 18 13 6 14 9 4 4 4 5 1 5 4 3 7 7 6 6 8 9 11 10 12 15 14
30 24 25 26 19 20 20 14 15 2 11 8 3 9 4 3 4 3 4 2 3 6 6 6 5 6 7 9 8 6 15 13
26 28 24 21 25 23 16 10 14 13 24 7 6 7 4 1 3 4 4 4 2 6 6 4 6 5 6 7 3 5 12 12
22 26 22 24 20 21 21 18 21 13 20 3 5 7 5 3 5 5 5 4 4 6 7 6 6 3 3 7 8 9 12 15
25 23 22 25 26 27 23 29 26 17 8 2 4 9 7 6 7 7 6 6 4 5 7 7 5 4 3 8 19 14 16 20
25 19 20 23 24 25 25 25 8 3 12 9 11 9 9 8 9 9 8 8 7 8 8 7 6 6 6 7 15 14 22 31
27 25 21 24 21 24 25 24 16 11 12 4 8 13 9 10 12 11 8 8 9 11 10 8 7 7 9 11 12 13 14 23
26 26 26 25 20 21 26 28 22 18 12 9 13 11 8 13 13 13 11 11 11 11 9 7 6 7 9 11 14 16 18 19
26 25 25 28 26 24 24 25 24 17 13 18 13 11 11 12 15 15 16 15 13 11 9 6 6 6 8 9 8 10 13 17
25 20 27 23 21 24 26 26 25 19 17 12 13 10 12 15 17 18 20 19 16 13 8 6 6 7 9 11 13 12 12 13
30 29 21 23 19 18 21 22 25 22 23 21 18 13 18 14 17 20 21 22 19 16 13 9 8 9 10 11 12 14 12 12
37 30 28 21 16 17 21 23 19 24 26 23 18 19 13 19 17 18 23 25 23 19 14 11 9 11 11 12 14 13 13 12
42 39 31 28 19 32 28 21 29 28 31 34 26 21 20 20 21 20 24 25 26 22 17 15 12 11 13 14 15 14 12 11
46 45 43 29 26 34 26 29 27 27 28 29 35 36 25 19 16 26 28 30 29 26 21 17 15 13 14 16 15 15 13 12
47 40 42 42 38 44 36 32 31 31 28 28 36 29 29 27 16 28 29 32 30 28 25 21 19 17 14 16 17 16 14 14
54 50 48 51 54 44 38 31 30 31 29 29 27 29 27 25 23 30 34 32 33 31 29 24 21 20 18 16 17 17 16 16
59 53 58 58 49 45 41 39 38 34 33 32 27 27 28 26 29 36 39 33 33 33 29 26 24 22 21 18 17 19 19 18
58 53 57 58 57 48 45 43 41 40 36 35 35 32 29 29 28 26 38 37 32 32 31 30 27 24 21 21 19 18 20 21
61 57 59 63 64 56 50 48 44 43 42 39 39 38 34 32 27 26 25 43 33 28 29 31 30 28 24 21 20 18 20 22
Wind_Direction
251 235 222 251 240 246 286 286 271 279 65 291 301 320 281 301 302 69 96 82 198 220 236 251 252 267 290 320 272 216 208 200
246 222 228 213 239 238 241 261 263 359 232 265 281 304 281 303 318 184 70 105 203 238 225 220 230 254 301 331 316 222 200 199
232 244 234 240 236 228 266 273 279 310 301 77 360 276 253 173 218 204 71 68 205 213 190 210 248 272 320 325 288 180 174 169
235 241 247 221 237 253 245 265 241 205 290 16 250 244 229 184 217 183 140 122 157 184 184 215 243 266 18 30 143 188 184 167
231 241 248 236 232 222 233 250 242 231 259 231 272 236 222 204 207 210 193 155 194 211 199 195 206 195 120 61 100 123 169 168
222 236 241 266 242 235 223 245 272 348 315 45 324 226 224 211 209 211 207 186 197 209 190 192 186 171 155 112 85 92 92 115
227 218 225 238 255 231 228 221 236 239 227 310 305 271 214 217 211 204 199 186 193 194 185 189 190 168 161 145 118 115 138 114
232 228 227 233 221 236 227 222 226 235 253 263 262 233 218 210 204 196 175 181 183 184 183 180 196 182 164 150 148 159 150 151
233 229 228 236 227 229 221 233 242 228 244 262 242 212 220 204 198 193 171 175 180 184 187 186 202 201 176 158 154 158 158 162
229 229 232 235 234 240 230 229 232 234 225 227 261 214 225 219 203 197 181 178 189 196 198 203 215 208 195 181 174 167 167 166
227 227 223 232 227 225 234 238 225 221 226 235 249 250 219 217 228 203 191 189 192 197 212 206 216 215 210 196 188 180 188 182
228 226 229 229 230 230 223 235 229 227 225 228 237 244 230 220 229 220 203 198 200 203 214 220 217 218 215 205 204 197 194 193
232 231 229 218 211 234 226 225 224 223 218 222 212 231 221 217 217 218 214 210 208 211 214 229 226 221 215 214 217 207 205 206
233 235 233 226 218 236 227 225 223 225 221 219 221 230 238 237 221 214 214 212 208 212 216 229 238 231 228 222 223 222 216 216
234 245 246 233 231 235 230 226 224 220 216 217 226 229 224 239 238 218 218 214 206 210 214 221 238 241 236 234 231 228 221 222
231 228 235 237 228 230 230 226 230 227 221 217 218 222 224 230 244 218 212 216 209 202 212 211 225 239 235 241 242 237 225 221
232 230 236 241 235 232 229 226 223 225 220 216 203 211 224 221 231 217 211 209 212 207 206 212 217 230 237 242 242 241 234 224
235 232 238 240 242 233 233 227 224 224 222 215 207 208 220 220 233 229 223 213 211 214 207 212 216 221 230 242 246 246 240 232
234 233 233 234 237 232 230 230 227 223 222 216 209 211 207 215 224 233 256 205 207 218 220 218 219 224 222 237 247 251 251 244
Height
5900 5899 5905 5906 5908 5908 5906 5911 5911 5904 5902 5906 5902 5903 5903 5902 5901 5899 5897 5899 5900 5901 5901 5902 5903 5902 5898 5897 5893 5894 5896 5898
5896 5897 5900 5900 5901 5906 5904 5905 5905 5902 5895 5894 5901 5900 5902 5900 5899 5898 5899 5900 5901 5901 5901 5901 5902 5902 5899 5895 5891 5892 5893 5894
5895 5889 5893 5895 5897 5900 5902 5905 5906 5908 5899 5893 5896 5900 5902 5901 5901 5901 5899 5900 5901 5902 5902 5902 5903 5902 5899 5896 5893 5892 5893 5895
5890 5892 5888 5891 5900 5898 5902 5906 5902 5899 5900 5894 5897 5899 5901 5900 5901 5903 5901 5900 5901 5902 5903 5903 5904 5902 5901 5898 5894 5893 5893 5896
5886 5888 5887 5886 5890 5895 5902 5901 5896 5886 5898 5894 5896 5897 5898 5898 5900 5902 5901 5901 5901 5903 5904 5904 5905 5904 5904 5902 5895 5896 5895 5897
5880 5885 5888 5884 5884 5887 5894 5897 5893 5895 5894 5869 5893 5894 5895 5897 5899 5900 5901 5901 5901 5903 5904 5906 5906 5906 5906 5905 5902 5904 5902 5901
5872 5877 5882 5884 5881 5882 5886 5894 5893 5894 5895 5896 5894 5892 5894 5896 5898 5899 5900 5901 5902 5903 5904 5907 5907 5908 5908 5908 5910 5910 5911 5912
5862 5869 5873 5875 5879 5882 5882 5888 5891 5892 5895 5895 5894 5893 5892 5894 5897 5898 5899 5901 5902 5904 5905 5907 5909 5909 5910 5910 5913 5915 5917 5917
5856 5861 5864 5866 5870 5876 5880 5884 5883 5890 5894 5889 5891 5891 5892 5893 5895 5896 5897 5900 5903 5905 5906 5907 5909 5910 5912 5913 5914 5916 5918 5921
5850 5855 5857 5863 5867 5868 5871 5876 5881 5885 5889 5890 5888 5890 5892 5893 5893 5895 5896 5899 5902 5904 5906 5907 5909 5910 5912 5914 5916 5917 5919 5921
5841 5845 5854 5856 5860 5865 5867 5870 5873 5881 5884 5886 5886 5888 5889 5892 5893 5894 5896 5898 5901 5903 5906 5907 5908 5910 5912 5915 5916 5918 5920 5922
5832 5837 5843 5852 5856 5858 5860 5862 5868 5872 5877 5881 5884 5884 5888 5888 5891 5892 5893 5895 5899 5903 5906 5907 5908 5909 5912 5915 5917 5918 5921 5923
5823 5827 5834 5840 5847 5847 5851 5860 5857 5863 5867 5870 5877 5882 5878 5882 5886 5889 5891 5893 5896 5900 5904 5907 5908 5909 5911 5914 5916 5918 5920 5922
5815 5818 5823 5832 5836 5838 5843 5845 5851 5855 5860 5865 5866 5869 5876 5879 5881 5885 5887 5889 5892 5897 5901 5905 5907 5909 5910 5912 5915 5917 5919 5922
5806 5811 5815 5822 5825 5824 5831 5837 5842 5847 5852 5857 5859 5866 5870 5872 5876 5881 5884 5887 5889 5893 5897 5902 5905 5907 5909 5911 5913 5916 5918 5921
5789 5797 5797 5802 5807 5815 5823 5831 5835 5840 5846 5849 5853 5859 5862 5866 5870 5873 5878 5882 5885 5887 5892 5897 5902 5905 5907 5909 5912 5914 5917 5919
5773 5783 5783 5788 5797 5808 5815 5821 5827 5833 5838 5842 5847 5851 5855 5860 5862 5864 5871 5875 5880 5883 5887 5893 5897 5901 5905 5907 5910 5912 5915 5916
5762 5772 5773 5779 5782 5795 5803 5811 5818 5824 5829 5834 5839 5844 5848 5852 5855 5859 5866 5868 5873 5878 5883 5887 5892 5895 5900 5903 5906 5909 5912 5914
5744 5754 5758 5763 5767 5775 5790 5798 5806 5813 5819 5825 5831 5836 5841 5846 5850 5851 5854 5861 5867 5872 5877 5882 5887 5891 5895 5898 5902 5905 5908 5910